Time,TemperatureF,DewpointF,PressureIn,WindDirection,WindDirectionDegrees,WindSpeedMPH,WindSpeedGustMPH,Humidity,HourlyPrecipIn,Conditions,Clouds,dailyrainin,SoftwareType,DateUTC
2013-03-26 00:03:00,40.0,31.0,29.80,West,266,0.0,2.0,71,0.00,,,0.00,,2013-03-26 04:03:00,
2013-03-26 00:13:00,40.0,31.0,29.80,West,266,0.0,2.0,71,0.00,,,0.00,,2013-03-26 04:13:00,
2013-03-26 00:23:00,40.0,31.0,29.80,West,269,0.0,2.0,71,0.00,,,0.00,,2013-03-26 04:23:00,
2013-03-26 00:33:00,40.0,31.0,29.80,West,269,0.0,2.0,71,0.00,,,0.00,,2013-03-26 04:33:00,
2013-03-26 00:43:00,40.0,31.0,29.80,West,269,0.0,2.0,71,0.00,,,0.00,,2013-03-26 04:43:00,
2013-03-26 00:52:00,41.0,31.0,29.81,West,276,2.0,6.0,67,0.00,,,0.00,,2013-03-26 04:52:00,
2013-03-26 01:02:00,40.0,30.0,29.82,WSW,252,0.0,4.0,67,0.00,,,0.00,,2013-03-26 05:02:00,
2013-03-26 01:12:00,40.0,30.0,29.82,WSW,252,0.0,4.0,67,0.00,,,0.00,,2013-03-26 05:12:00,
2013-03-26 01:22:00,40.0,30.0,29.82,WNW,284,0.0,3.0,68,0.00,,,0.00,,2013-03-26 05:22:00,
2013-03-26 01:32:00,40.0,30.0,29.82,WSW,249,0.0,4.0,68,0.00,,,0.00,,2013-03-26 05:32:00,
2013-03-26 01:42:00,40.0,30.0,29.82,WSW,249,0.0,4.0,68,0.00,,,0.00,,2013-03-26 05:42:00,
2013-03-26 01:52:00,40.0,31.0,29.83,West,264,0.0,3.0,69,0.00,,,0.00,,2013-03-26 05:52:00,
2013-03-26 02:02:00,39.0,29.0,29.83,West,266,1.0,3.0,68,0.00,,,0.00,,2013-03-26 06:02:00,
2013-03-26 02:12:00,39.0,29.0,29.83,West,266,1.0,3.0,68,0.00,,,0.00,,2013-03-26 06:12:00,
2013-03-26 02:22:00,40.0,30.0,29.84,West,276,0.0,7.0,68,0.00,,,0.00,,2013-03-26 06:22:00,
2013-03-26 02:32:00,39.0,30.0,29.84,West,269,0.0,3.0,69,0.00,,,0.00,,2013-03-26 06:32:00,
2013-03-26 02:43:00,39.0,30.0,29.84,West,269,0.0,3.0,69,0.00,,,0.00,,2013-03-26 06:43:00,
2013-03-26 02:52:00,39.0,30.0,29.84,West,280,1.0,5.0,70,0.00,,,0.00,,2013-03-26 06:52:00,
2013-03-26 03:02:00,39.0,30.0,29.85,WSW,250,1.0,4.0,70,0.00,,,0.00,,2013-03-26 07:02:00,
2013-03-26 03:12:00,39.0,30.0,29.85,WSW,250,1.0,4.0,70,0.00,,,0.00,,2013-03-26 07:12:00,
2013-03-26 03:22:00,39.0,30.0,29.85,WNW,291,1.0,5.0,70,0.00,,,0.00,,2013-03-26 07:22:00,
2013-03-26 03:33:00,38.0,29.0,29.85,SW,214,2.0,4.0,71,0.00,,,0.00,,2013-03-26 07:33:00,
2013-03-26 03:43:00,38.0,29.0,29.85,SW,214,2.0,4.0,71,0.00,,,0.00,,2013-03-26 07:43:00,
2013-03-26 03:52:00,38.0,30.0,29.85,SSW,211,1.0,3.0,73,0.00,,,0.00,,2013-03-26 07:52:00,
2013-03-26 04:02:00,37.0,29.0,29.85,West,279,1.0,3.0,74,0.00,,,0.00,,2013-03-26 08:02:00,
2013-03-26 04:13:00,37.0,29.0,29.85,West,279,1.0,3.0,74,0.00,,,0.00,,2013-03-26 08:13:00,
2013-03-26 04:22:00,37.0,30.0,29.86,WNW,302,0.0,3.0,75,0.00,,,0.00,,2013-03-26 08:22:00,
2013-03-26 04:32:00,37.0,30.0,29.86,West,262,0.0,3.0,75,0.00,,,0.00,,2013-03-26 08:32:00,
2013-03-26 04:42:00,37.0,30.0,29.86,West,262,0.0,3.0,75,0.00,,,0.00,,2013-03-26 08:42:00,
2013-03-26 04:52:00,37.0,30.0,29.86,West,265,1.0,4.0,75,0.00,,,0.00,,2013-03-26 08:52:00,
2013-03-26 05:02:00,37.0,30.0,29.86,West,271,1.0,3.0,75,0.00,,,0.00,,2013-03-26 09:02:00,
2013-03-26 05:12:00,37.0,30.0,29.86,West,271,1.0,3.0,75,0.00,,,0.00,,2013-03-26 09:12:00,
2013-03-26 05:22:00,36.0,29.0,29.87,WSW,242,1.0,3.0,75,0.00,,,0.00,,2013-03-26 09:22:00,
2013-03-26 05:33:00,36.0,29.0,29.88,WNW,285,0.0,4.0,75,0.00,,,0.00,,2013-03-26 09:33:00,
2013-03-26 05:43:00,36.0,29.0,29.88,WNW,285,0.0,4.0,75,0.00,,,0.00,,2013-03-26 09:43:00,
2013-03-26 05:52:00,36.0,29.0,29.88,West,273,1.0,3.0,76,0.00,,,0.00,,2013-03-26 09:52:00,
2013-03-26 06:03:00,36.0,29.0,29.88,West,268,0.0,1.0,77,0.00,,,0.00,,2013-03-26 10:03:00,
2013-03-26 06:12:00,36.0,29.0,29.88,West,268,0.0,1.0,77,0.00,,,0.00,,2013-03-26 10:12:00,
2013-03-26 06:22:00,36.0,29.0,29.88,WNW,284,0.0,4.0,77,0.00,,,0.00,,2013-03-26 10:22:00,
2013-03-26 06:33:00,35.0,29.0,29.89,WNW,290,0.0,3.0,78,0.00,,,0.00,,2013-03-26 10:33:00,
2013-03-26 06:42:00,35.0,29.0,29.89,WNW,290,0.0,3.0,78,0.00,,,0.00,,2013-03-26 10:42:00,
2013-03-26 06:52:00,35.0,29.0,29.89,West,273,0.0,2.0,78,0.00,,,0.00,,2013-03-26 10:52:00,
2013-03-26 07:03:00,35.0,29.0,29.90,West,271,0.0,3.0,79,0.00,,,0.00,,2013-03-26 11:03:00,
2013-03-26 07:12:00,35.0,29.0,29.90,West,271,0.0,3.0,79,0.00,,,0.00,,2013-03-26 11:12:00,
2013-03-26 07:22:00,35.0,29.0,29.90,NW,311,0.0,3.0,79,0.00,,,0.00,,2013-03-26 11:22:00,
2013-03-26 07:32:00,35.0,29.0,29.91,WNW,287,0.0,2.0,79,0.00,,,0.00,,2013-03-26 11:32:00,
2013-03-26 07:42:00,35.0,29.0,29.91,WNW,287,0.0,2.0,79,0.00,,,0.00,,2013-03-26 11:42:00,
2013-03-26 07:52:00,36.0,30.0,29.90,WNW,290,0.0,3.0,79,0.00,,,0.00,,2013-03-26 11:52:00,
2013-03-26 08:03:00,36.0,30.0,29.90,WNW,290,0.0,3.0,79,0.00,,,0.00,,2013-03-26 12:03:00,
2013-03-26 08:12:00,37.0,31.0,29.90,WNW,283,0.0,1.0,78,0.00,,,0.00,,2013-03-26 12:12:00,
2013-03-26 08:22:00,38.0,31.0,29.91,WNW,294,0.0,1.0,77,0.00,,,0.00,,2013-03-26 12:22:00,
2013-03-26 08:32:00,39.0,32.0,29.91,WNW,285,0.0,3.0,76,0.00,,,0.00,,2013-03-26 12:32:00,
2013-03-26 08:42:00,39.0,32.0,29.91,WNW,285,0.0,3.0,76,0.00,,,0.00,,2013-03-26 12:42:00,
2013-03-26 08:52:00,40.0,32.0,29.92,WNW,290,0.0,4.0,73,0.00,,,0.00,,2013-03-26 12:52:00,
2013-03-26 09:03:00,41.0,32.0,29.92,WNW,299,0.0,4.0,71,0.00,,,0.00,,2013-03-26 13:03:00,
2013-03-26 09:12:00,41.0,32.0,29.92,WNW,299,0.0,4.0,71,0.00,,,0.00,,2013-03-26 13:12:00,
2013-03-26 09:22:00,41.0,32.0,29.92,WSW,239,1.0,3.0,69,0.00,,,0.00,,2013-03-26 13:22:00,
2013-03-26 09:32:00,42.0,32.0,29.92,West,259,1.0,4.0,68,0.00,,,0.00,,2013-03-26 13:32:00,
2013-03-26 09:42:00,42.0,32.0,29.92,West,259,1.0,4.0,68,0.00,,,0.00,,2013-03-26 13:42:00,
2013-03-26 09:52:00,44.0,33.0,29.93,WNW,284,1.0,5.0,66,0.00,,,0.00,,2013-03-26 13:52:00,
2013-03-26 10:02:00,44.0,32.0,29.93,West,269,1.0,5.0,62,0.00,,,0.00,,2013-03-26 14:02:00,
2013-03-26 10:12:00,44.0,32.0,29.93,West,269,1.0,5.0,62,0.00,,,0.00,,2013-03-26 14:12:00,
2013-03-26 10:22:00,45.0,32.0,29.93,West,271,1.0,3.0,61,0.00,,,0.00,,2013-03-26 14:22:00,
2013-03-26 10:33:00,46.0,33.0,29.93,West,280,1.0,6.0,61,0.00,,,0.00,,2013-03-26 14:33:00,
2013-03-26 10:42:00,46.0,33.0,29.93,West,280,1.0,6.0,61,0.00,,,0.00,,2013-03-26 14:42:00,
2013-03-26 10:52:00,47.0,33.0,29.93,WNW,300,1.0,5.0,57,0.00,,,0.00,,2013-03-26 14:52:00,
2013-03-26 11:02:00,47.0,33.0,29.93,WNW,288,2.0,5.0,57,0.00,,,0.00,,2013-03-26 15:02:00,
2013-03-26 11:12:00,47.0,33.0,29.93,WNW,288,2.0,5.0,57,0.00,,,0.00,,2013-03-26 15:12:00,
2013-03-26 11:22:00,48.0,33.0,29.93,WSW,243,2.0,5.0,56,0.00,,,0.00,,2013-03-26 15:22:00,
2013-03-26 11:33:00,48.0,33.0,29.94,WNW,290,0.0,6.0,56,0.00,,,0.00,,2013-03-26 15:33:00,
2013-03-26 11:43:00,48.0,33.0,29.94,WNW,290,0.0,6.0,56,0.00,,,0.00,,2013-03-26 15:43:00,
2013-03-26 11:52:00,49.0,34.0,29.93,WNW,293,2.0,8.0,55,0.00,,,0.00,,2013-03-26 15:52:00,
2013-03-26 12:03:00,48.0,32.0,29.93,WNW,287,1.0,7.0,53,0.00,,,0.00,,2013-03-26 16:03:00,
2013-03-26 12:13:00,48.0,32.0,29.93,WNW,287,1.0,7.0,53,0.00,,,0.00,,2013-03-26 16:13:00,
2013-03-26 12:22:00,48.0,31.0,29.93,North,356,1.0,4.0,52,0.00,,,0.00,,2013-03-26 16:22:00,
2013-03-26 12:32:00,48.0,31.0,29.93,West,259,1.0,8.0,52,0.00,,,0.00,,2013-03-26 16:32:00,
2013-03-26 12:42:00,48.0,31.0,29.93,West,259,1.0,8.0,52,0.00,,,0.00,,2013-03-26 16:42:00,
2013-03-26 12:53:00,48.0,33.0,29.93,West,269,2.0,5.0,55,0.00,,,0.00,,2013-03-26 16:53:00,
2013-03-26 13:03:00,48.0,33.0,29.93,WNW,289,1.0,5.0,56,0.00,,,0.00,,2013-03-26 17:03:00,
2013-03-26 13:12:00,48.0,33.0,29.93,WNW,289,1.0,5.0,56,0.00,,,0.00,,2013-03-26 17:12:00,
2013-03-26 13:23:00,48.0,32.0,29.93,SW,231,0.0,4.0,53,0.00,,,0.00,,2013-03-26 17:23:00,
2013-03-26 13:33:00,48.0,32.0,29.93,West,269,1.0,5.0,54,0.00,,,0.00,,2013-03-26 17:33:00,
2013-03-26 13:42:00,48.0,32.0,29.93,West,269,1.0,5.0,54,0.00,,,0.00,,2013-03-26 17:42:00,
2013-03-26 13:52:00,49.0,33.0,29.92,West,260,1.0,5.0,53,0.00,,,0.00,,2013-03-26 17:52:00,
2013-03-26 14:02:00,49.0,32.0,29.92,SW,226,0.0,4.0,51,0.00,,,0.00,,2013-03-26 18:02:00,
2013-03-26 14:12:00,49.0,32.0,29.92,SW,226,0.0,4.0,51,0.00,,,0.00,,2013-03-26 18:12:00,
2013-03-26 14:23:00,50.0,33.0,29.92,West,281,1.0,4.0,52,0.00,,,0.00,,2013-03-26 18:23:00,
2013-03-26 14:34:00,50.0,32.0,29.92,WSW,255,2.0,6.0,49,0.00,,,0.00,,2013-03-26 18:34:00,
2013-03-26 14:42:00,50.0,32.0,29.92,WSW,255,2.0,6.0,49,0.00,,,0.00,,2013-03-26 18:42:00,
2013-03-26 14:52:00,49.0,32.0,29.92,WSW,246,1.0,5.0,52,0.00,,,0.00,,2013-03-26 18:52:00,
2013-03-26 15:03:00,49.0,32.0,29.92,SE,130,1.0,4.0,51,0.00,,,0.00,,2013-03-26 19:03:00,
2013-03-26 15:12:00,49.0,32.0,29.92,SE,130,1.0,4.0,51,0.00,,,0.00,,2013-03-26 19:12:00,
2013-03-26 15:22:00,50.0,32.0,29.92,WSW,255,1.0,3.0,50,0.00,,,0.00,,2013-03-26 19:22:00,
2013-03-26 15:32:00,49.0,32.0,29.92,WNW,298,1.0,5.0,51,0.00,,,0.00,,2013-03-26 19:32:00,
2013-03-26 15:42:00,49.0,32.0,29.92,WNW,298,1.0,5.0,51,0.00,,,0.00,,2013-03-26 19:42:00,
2013-03-26 15:53:00,49.0,32.0,29.92,WNW,288,2.0,6.0,52,0.00,,,0.00,,2013-03-26 19:53:00,
2013-03-26 16:02:00,49.0,33.0,29.92,West,278,1.0,6.0,53,0.00,,,0.00,,2013-03-26 20:02:00,
2013-03-26 16:13:00,49.0,33.0,29.92,West,278,1.0,6.0,53,0.00,,,0.00,,2013-03-26 20:13:00,
2013-03-26 16:22:00,49.0,33.0,29.92,West,276,1.0,3.0,53,0.00,,,0.00,,2013-03-26 20:22:00,
2013-03-26 16:32:00,48.0,33.0,29.92,NE,34,0.0,4.0,56,0.00,,,0.00,,2013-03-26 20:32:00,
2013-03-26 16:43:00,48.0,33.0,29.92,NE,34,0.0,4.0,56,0.00,,,0.00,,2013-03-26 20:43:00,
2013-03-26 16:52:00,48.0,32.0,29.93,WNW,284,1.0,5.0,54,0.00,,,0.00,,2013-03-26 20:52:00,
2013-03-26 17:02:00,48.0,32.0,29.93,WNW,284,1.0,5.0,54,0.00,,,0.00,,2013-03-26 21:02:00,
2013-03-26 17:13:00,48.0,32.0,29.93,WNW,284,1.0,5.0,54,0.00,,,0.00,,2013-03-26 21:13:00,
2013-03-26 17:22:00,48.0,32.0,29.93,WNW,284,1.0,5.0,54,0.00,,,0.00,,2013-03-26 21:22:00,
2013-03-26 18:22:00,48.0,34.0,29.96,West,266,1.0,4.0,58,0.00,,,0.00,,2013-03-26 22:22:00,
2013-03-26 18:33:00,48.0,34.0,29.96,West,266,1.0,4.0,58,0.00,,,0.00,,2013-03-26 22:33:00,
2013-03-26 18:42:00,48.0,34.0,29.96,West,266,1.0,4.0,58,0.00,,,0.00,,2013-03-26 22:42:00,
2013-03-26 18:52:00,48.0,34.0,29.96,West,266,1.0,4.0,58,0.00,,,0.00,,2013-03-26 22:52:00,
2013-03-26 19:22:00,46.0,34.0,29.98,West,276,1.0,3.0,63,0.00,,,0.00,,2013-03-26 23:22:00,
2013-03-26 19:32:00,46.0,35.0,29.98,WSW,241,1.0,5.0,64,0.00,,,0.00,,2013-03-26 23:32:00,
2013-03-26 19:42:00,46.0,35.0,29.98,WSW,241,1.0,5.0,64,0.00,,,0.00,,2013-03-26 23:42:00,
2013-03-26 19:52:00,46.0,35.0,29.99,West,259,0.0,2.0,65,0.00,,,0.00,,2013-03-26 23:52:00,
2013-03-26 20:02:00,45.0,35.0,30.00,SSW,200,0.0,3.0,67,0.00,,,0.00,,2013-03-27 00:02:00,
2013-03-26 20:12:00,45.0,35.0,30.00,SSW,200,0.0,3.0,67,0.00,,,0.00,,2013-03-27 00:12:00,
2013-03-26 20:22:00,44.0,34.0,30.01,WNW,287,0.0,2.0,69,0.00,,,0.00,,2013-03-27 00:22:00,
2013-03-26 20:33:00,43.0,35.0,30.01,WNW,286,0.0,1.0,72,0.00,,,0.00,,2013-03-27 00:33:00,
2013-03-26 20:42:00,43.0,35.0,30.01,WNW,286,0.0,1.0,72,0.00,,,0.00,,2013-03-27 00:42:00,
2013-03-26 20:52:00,42.0,34.0,30.02,West,269,0.0,1.0,73,0.00,,,0.00,,2013-03-27 00:52:00,
2013-03-26 21:02:00,42.0,35.0,30.03,West,269,0.0,0.0,75,0.00,,,0.00,,2013-03-27 01:02:00,
2013-03-26 21:12:00,42.0,35.0,30.03,West,269,0.0,0.0,75,0.00,,,0.00,,2013-03-27 01:12:00,
2013-03-26 21:23:00,41.0,34.0,30.03,West,269,0.0,1.0,77,0.00,,,0.00,,2013-03-27 01:23:00,
2013-03-26 21:33:00,40.0,34.0,30.04,West,268,0.0,1.0,78,0.00,,,0.00,,2013-03-27 01:33:00,
2013-03-26 21:42:00,40.0,34.0,30.04,West,268,0.0,1.0,78,0.00,,,0.00,,2013-03-27 01:42:00,
2013-03-26 21:52:00,40.0,34.0,30.04,West,269,0.0,0.0,78,0.00,,,0.00,,2013-03-27 01:52:00,
2013-03-26 22:03:00,41.0,35.0,30.05,NW,314,0.0,2.0,79,0.00,,,0.00,,2013-03-27 02:03:00,
2013-03-26 22:12:00,41.0,35.0,30.05,NW,314,0.0,2.0,79,0.00,,,0.00,,2013-03-27 02:12:00,
2013-03-26 22:22:00,41.0,35.0,30.06,NW,314,0.0,0.0,79,0.00,,,0.00,,2013-03-27 02:22:00,
2013-03-26 22:32:00,42.0,35.0,30.06,WNW,290,0.0,1.0,77,0.00,,,0.00,,2013-03-27 02:32:00,
2013-03-26 22:42:00,42.0,35.0,30.06,WNW,290,0.0,1.0,77,0.00,,,0.00,,2013-03-27 02:42:00,
2013-03-26 22:52:00,42.0,35.0,30.07,WNW,294,0.0,1.0,76,0.00,,,0.00,,2013-03-27 02:52:00,
2013-03-26 23:02:00,41.0,34.0,30.07,WNW,294,0.0,1.0,76,0.00,,,0.00,,2013-03-27 03:02:00,
2013-03-26 23:12:00,41.0,34.0,30.07,WNW,294,0.0,1.0,76,0.00,,,0.00,,2013-03-27 03:12:00,
2013-03-26 23:22:00,41.0,34.0,30.07,WNW,294,0.0,0.0,77,0.00,,,0.00,,2013-03-27 03:22:00,
2013-03-26 23:33:00,41.0,35.0,30.07,WNW,294,0.0,0.0,78,0.00,,,0.00,,2013-03-27 03:33:00,
2013-03-26 23:42:00,41.0,35.0,30.07,WNW,294,0.0,0.0,78,0.00,,,0.00,,2013-03-27 03:42:00,
2013-03-26 23:52:00,41.0,35.0,30.07,West,270,0.0,1.0,78,0.00,,,0.00,,2013-03-27 03:52:00,